{"data":{"norad_id":63512,"epoch":"2026-09-20T10:19:53.043456Z","epoch_age_seconds":161696,"freshness":"FRESH","line1":"1 63512U 25071V   26263.43047504  .00014560  00000+0  47968-3 0  9990","line2":"2 63512  53.1571 314.0515 0000752  46.1121 313.9943 15.31723088 82582","mean_motion":15.31723088,"eccentricity":7.52e-5,"inclination_deg":53.1571,"raan_deg":314.0515,"arg_perigee_deg":46.1121,"mean_anomaly_deg":313.9943,"bstar":0.00047968,"rev_number":8258,"period_min":94.011770879568,"perigee_km":470.15614158902,"apogee_km":471.18620233808,"semimajor_km":6848.8081719636,"source":"CELESTRAK","updated_at":"2026-09-21T09:00:35.017139Z"}}